Great Bend, KS

8:27 PM CDT on September 24, 2016 (GMT -0500)
Great Bend Municipal

Weather History for KGBD - August, 2013

Change the Weather History Date:

Saturday, August 17, 2013

  Actual Average Record
Temperature  
Mean Temperature 72 °F -  
Max Temperature 80 °F 93 °F 107 °F (1952)
Min Temperature 64 °F 67 °F 51 °F (2012)
Cooling Degree Days 7    
Growing Degree Days 22 (Base 50)    
Moisture  
Dew Point 62 °F    
Average Humidity 74    
Maximum Humidity 88    
Minimum Humidity 54    
Precipitation  
Precipitation 0.00 in - - ()
Sea Level Pressure  
Sea Level Pressure 30.12 in    
Wind  
Wind Speed 10 mph (SE)    
Max Wind Speed 18 mph    
Max Gust Speed 23 mph    
Visibility 10 miles    
Events      
Averages and records for this station are not official NWS values.
T = Trace of Precipitation, MM = Missing Value Source: NWS Daily Summary

Daily Weather History Graph

Daily Weather History Graph

Search for Another Location

Airport or City:

Trip Planner

Search our weather history database for the weather conditions in past years. The results will help you decide how hot, cold, wet, or windy it might be!

Date:

Astronomy

Aug. 17, 2013 Rise Set
Actual Time 6:52 AM CDT 8:26 PM CDT
Civil Twilight 6:23 AM CDT 8:54 PM CDT
Nautical Twilight 5:50 AM CDT 9:27 PM CDT
Astronomical Twilight 5:14 AM CDT 10:03 PM CDT
Moon 5:41 PM CDT (8/17) 2:58 AM CDT (8/17)
Length of Visible Light 14h 30m
Length of Day
13h 34m
Waxing Gibbous, 84% of the Moon is Illuminated
Aug 17
Waxing Gibbous
Aug 20
Full
Aug 28
Last Quarter
Sep 5
New
Sep 12
First Quarter

Hourly Weather History & Observations

Time (CDT) Temp. Heat Index Dew Point Humidity Pressure Visibility Wind Dir Wind Speed Gust Speed Precip Events Conditions
12:15 AM 66.2 °F - 62.6 °F 88% 30.14 in 10.0 mi SE 8.1 mph - N/A   Clear
12:35 AM 66.2 °F - 62.6 °F 88% 30.14 in 10.0 mi SE 6.9 mph - N/A   Partly Cloudy
12:55 AM 66.2 °F - 62.6 °F 88% 30.14 in 10.0 mi SE 8.1 mph - N/A   Partly Cloudy
1:15 AM 66.2 °F - 60.8 °F 83% 30.15 in 10.0 mi SE 6.9 mph - N/A   Partly Cloudy
1:35 AM 66.2 °F - 60.8 °F 83% 30.15 in 10.0 mi SE 6.9 mph - N/A   Scattered Clouds
1:55 AM 66.2 °F - 60.8 °F 83% 30.15 in 10.0 mi SSE 6.9 mph - N/A   Mostly Cloudy
2:15 AM 66.2 °F - 62.6 °F 88% 30.14 in 10.0 mi SE 5.8 mph - N/A   Overcast
2:35 AM 66.2 °F - 62.6 °F 88% 30.14 in 10.0 mi SE 6.9 mph - N/A   Overcast
2:55 AM 66.2 °F - 62.6 °F 88% 30.14 in 10.0 mi SE 6.9 mph - N/A   Overcast
3:15 AM 66.2 °F - 62.6 °F 88% 30.14 in 10.0 mi ESE 5.8 mph - N/A   Overcast
3:35 AM 66.2 °F - 62.6 °F 88% 30.14 in 10.0 mi ESE 8.1 mph - N/A   Overcast
3:55 AM 66.2 °F - 62.6 °F 88% 30.14 in 10.0 mi SE 8.1 mph - N/A   Overcast
4:15 AM 66.2 °F - 62.6 °F 88% 30.14 in 10.0 mi SE 9.2 mph - N/A   Overcast
4:35 AM 66.2 °F - 62.6 °F 88% 30.13 in 10.0 mi SE 9.2 mph - N/A   Overcast
4:55 AM 66.2 °F - 62.6 °F 88% 30.14 in 10.0 mi SE 8.1 mph - N/A   Overcast
5:15 AM 66.2 °F - 60.8 °F 83% 30.14 in 10.0 mi SSE 8.1 mph - N/A   Overcast
5:35 AM 66.2 °F - 60.8 °F 83% 30.15 in 10.0 mi SSE 5.8 mph - N/A   Overcast
5:55 AM 66.2 °F - 60.8 °F 83% 30.14 in 10.0 mi SSE 10.4 mph - N/A   Overcast
6:15 AM 64.4 °F - 60.8 °F 88% 30.14 in 10.0 mi SE 11.5 mph - N/A   Overcast
6:35 AM 64.4 °F - 60.8 °F 88% 30.14 in 10.0 mi SE 8.1 mph - N/A   Overcast
6:55 AM 64.4 °F - 60.8 °F 88% 30.16 in 10.0 mi SSE 8.1 mph - N/A   Mostly Cloudy
7:15 AM 64.4 °F - 60.8 °F 88% 30.16 in 10.0 mi SE 8.1 mph - N/A   Mostly Cloudy
7:35 AM 64.4 °F - 60.8 °F 88% 30.16 in 10.0 mi SE 8.1 mph - N/A   Overcast
7:55 AM 64.4 °F - 60.8 °F 88% 30.15 in 10.0 mi SE 11.5 mph - N/A   Overcast
8:15 AM 64.4 °F - 60.8 °F 88% 30.15 in 10.0 mi SE 10.4 mph - N/A   Overcast
8:35 AM 66.2 °F - 60.8 °F 83% 30.16 in 10.0 mi SE 11.5 mph - N/A   Overcast
8:55 AM 66.2 °F - 60.8 °F 83% 30.16 in 10.0 mi SSE 12.7 mph - N/A   Overcast
9:15 AM 68.0 °F - 60.8 °F 78% 30.16 in 10.0 mi SSE 12.7 mph 18.4 mph N/A   Overcast
9:35 AM 69.8 °F - 60.8 °F 73% 30.16 in 10.0 mi South 11.5 mph - N/A   Overcast
9:55 AM 69.8 °F - 62.6 °F 78% 30.16 in 10.0 mi South 13.8 mph - N/A   Overcast
10:15 AM 69.8 °F - 62.6 °F 78% 30.16 in 10.0 mi South 15.0 mph - N/A   Overcast
10:35 AM 71.6 °F - 62.6 °F 73% 30.15 in 10.0 mi South 15.0 mph - N/A   Overcast
10:55 AM 71.6 °F - 62.6 °F 73% 30.16 in 10.0 mi SSE 15.0 mph - N/A   Overcast
11:15 AM 71.6 °F - 62.6 °F 73% 30.16 in 10.0 mi SE 11.5 mph - N/A   Overcast
11:35 AM 73.4 °F - 62.6 °F 69% 30.15 in 10.0 mi SSE 11.5 mph - N/A   Mostly Cloudy
11:55 AM 73.4 °F - 64.4 °F 73% 30.15 in 10.0 mi SSE 11.5 mph 17.3 mph N/A   Mostly Cloudy
12:15 PM 75.2 °F - 64.4 °F 69% 30.14 in 10.0 mi SE 12.7 mph 17.3 mph N/A   Mostly Cloudy
12:35 PM 75.2 °F - 62.6 °F 65% 30.14 in 10.0 mi SSE 13.8 mph - N/A   Overcast
12:55 PM 75.2 °F - 62.6 °F 65% 30.13 in 10.0 mi SSE 16.1 mph 19.6 mph N/A   Overcast
1:15 PM 75.2 °F - 62.6 °F 65% 30.13 in 10.0 mi SSE 12.7 mph - N/A   Overcast
1:35 PM 75.2 °F - 64.4 °F 69% 30.12 in 10.0 mi SE 13.8 mph 17.3 mph N/A   Overcast
1:55 PM 77.0 °F - 64.4 °F 65% 30.12 in 10.0 mi SE 16.1 mph 19.6 mph N/A   Overcast
2:15 PM 75.2 °F - 62.6 °F 65% 30.11 in 10.0 mi SE 13.8 mph - N/A   Overcast
2:35 PM 78.8 °F - 62.6 °F 57% 30.10 in 10.0 mi SSE 16.1 mph 21.9 mph N/A   Overcast
2:55 PM 78.8 °F - 62.6 °F 57% 30.10 in 10.0 mi SE 13.8 mph 19.6 mph N/A   Mostly Cloudy
3:15 PM 80.6 °F 81.8 °F 62.6 °F 54% 30.10 in 10.0 mi SSE 13.8 mph - N/A   Overcast
3:35 PM 78.8 °F - 62.6 °F 57% 30.09 in 10.0 mi SSE 15.0 mph - N/A   Overcast
3:55 PM 78.8 °F - 62.6 °F 57% 30.08 in 10.0 mi SSE 13.8 mph 21.9 mph N/A   Mostly Cloudy
4:15 PM 80.6 °F 81.8 °F 62.6 °F 54% 30.08 in 10.0 mi SSE 18.4 mph 23.0 mph N/A   Mostly Cloudy
4:35 PM 80.6 °F 81.8 °F 62.6 °F 54% 30.08 in 10.0 mi SE 16.1 mph - N/A   Mostly Cloudy
4:55 PM 78.8 °F - 62.6 °F 57% 30.08 in 10.0 mi SE 15.0 mph 23.0 mph N/A   Mostly Cloudy
5:15 PM 78.8 °F - 62.6 °F 57% 30.08 in 10.0 mi SSE 15.0 mph - N/A   Overcast
5:35 PM 78.8 °F - 62.6 °F 57% 30.08 in 10.0 mi SE 16.1 mph 19.6 mph N/A   Overcast
5:55 PM 78.8 °F - 62.6 °F 57% 30.07 in 10.0 mi SSE 18.4 mph - N/A   Overcast
6:15 PM 77.0 °F - 62.6 °F 61% 30.08 in 10.0 mi SSE 13.8 mph - N/A   Mostly Cloudy
6:35 PM 77.0 °F - 62.6 °F 61% 30.08 in 10.0 mi SE 13.8 mph - N/A   Overcast
6:55 PM 75.2 °F - 62.6 °F 65% 30.08 in 10.0 mi SSE 11.5 mph - N/A   Overcast
7:15 PM 75.2 °F - 62.6 °F 65% 30.08 in 10.0 mi SE 13.8 mph - N/A   Mostly Cloudy
7:35 PM 75.2 °F - 62.6 °F 65% 30.08 in 10.0 mi SE 10.4 mph - N/A   Partly Cloudy
7:55 PM 75.2 °F - 62.6 °F 65% 30.08 in 10.0 mi SE 9.2 mph - N/A   Mostly Cloudy
8:15 PM 73.4 °F - 62.6 °F 69% 30.08 in 10.0 mi SE 8.1 mph - N/A   Overcast
8:35 PM 73.4 °F - 62.6 °F 69% 30.08 in 10.0 mi SE 8.1 mph - N/A   Overcast
8:55 PM 71.6 °F - 62.6 °F 73% 30.08 in 10.0 mi SE 9.2 mph - N/A   Mostly Cloudy
9:15 PM 71.6 °F - 62.6 °F 73% 30.08 in 10.0 mi SE 8.1 mph - N/A   Overcast
9:35 PM 71.6 °F - 62.6 °F 73% 30.09 in 10.0 mi SE 9.2 mph - N/A   Overcast
9:55 PM 69.8 °F - 62.6 °F 78% 30.10 in 10.0 mi ESE 6.9 mph - N/A   Mostly Cloudy
10:15 PM 69.8 °F - 62.6 °F 78% 30.10 in 10.0 mi ESE 6.9 mph - N/A   Overcast
10:35 PM 69.8 °F - 62.6 °F 78% 30.10 in 10.0 mi ESE 9.2 mph - N/A   Overcast
10:55 PM 69.8 °F - 60.8 °F 73% 30.11 in 10.0 mi SE 9.2 mph - N/A   Overcast
11:15 PM 69.8 °F - 60.8 °F 73% 30.11 in 10.0 mi SE 9.2 mph - N/A   Overcast
11:35 PM 69.8 °F - 60.8 °F 73% 30.12 in 10.0 mi SE 11.5 mph - N/A   Overcast
11:55 PM 68.0 °F - 60.8 °F 78% 30.12 in 10.0 mi SE 10.4 mph - N/A   Overcast